BXTK1: Spring River at Baxter Springs

                                SHEF ID:       BXTK1     SPRING R NR BAXTER SPRINGS, KS
STATION TYPE:

PRECIP STAGE RIV-FLOW BAT-LOAD
in ft cfs volt
Ccp-Rev Ccp-Rev Ccp-Rev Ccp-Rev
(America/Chicago)
04/26 00:00 0.00 4.73 3373 12.34
04/26 01:00 0.00 4.71 3320 12.33
04/26 02:00 0.00 4.70 3293 12.31
04/26 03:00 0.00 4.70 3293 12.29
04/26 04:00 0.00 4.68 3241 12.27
04/26 05:00 0.00 4.67 3215 12.22
04/26 06:00 0.00 4.66 3189 12.19
04/26 07:00 0.00 4.64 3137 12.15
04/26 08:00 0.00 4.63 3112 12.65
04/26 09:00 0.00 4.62 3086 12.90
04/26 10:00 0.00 4.61 3061 12.99
04/26 11:00 0.00 4.60 3035 13.23
04/26 12:00 0.00 4.58 2985 13.85
04/26 13:00 0.00 4.57 2960 13.94
04/26 14:00 0.00 4.56 2935 13.82
04/26 15:00 0.00 4.56 2935 13.57
04/26 16:00 0.00 4.55 2910 13.64
04/26 17:00 0.00 4.54 2885 13.49
04/26 18:00 0.00 4.52 2836 13.30
04/26 19:00 0.00 4.52 2836 12.73
04/26 20:00 0.00 4.52 2836 12.45
04/26 21:00 0.00 4.51 2811 12.42
04/26 22:00 0.00 4.50 2787 12.40
04/26 23:00 ---- ---- ---- ----
Data processed at Mon 27Apr2026 04:42 GMT

NOTICE: If you are parsing this page

Please convert to using our Data API. Starting early 2026 we will be migrating to: https://water.usace.army.mil with modern pages rendered in JavaScript. When this migration completes you will no longer be able to scrape this page! CWMSDataAPI (CDA)

Timeseries IDs (TSIDs)

TSIDs used from left to right in the data table
BAXT.Precip-Inc.Total.1Hour.1Hour.Ccp-Rev
BAXT.Stage.Inst.1Hour.0.Ccp-Rev
BAXT.Flow.Inst.1Hour.0.Ccp-Rev
BAXT.Volt-Battery Load.Inst.1Hour.0.Ccp-Rev

                            

All information presented herein is the property of the government of the United States of America and may be revised or deleted at any time without prior notice. Dissemination of this information without the expressed written consent of the Public Affairs Office, Tulsa District U.S. Army Corps of Engineers is strictly prohibited. These data are gathered electronically and, as presented, have NOT undergone any form of quality control. These data are NOT guaranteed to be valid or correct.